This is the latest recevied weather packets stored in our database for station/object KC3AWA. If no packets are shown the sender has not sent any weather packets the latest 10 day(s).
| Time | Temp. | Humidity | Pressure | Rain* | Wind** | Luminosity | Snow |
|---|---|---|---|---|---|---|---|
| 1777936070 | 20° C | 50% | 1006.9 hPa | 0 mm | - | 27 W/m² | - |
| 1777935768 | 20° C | 49% | 1006.6 hPa | 0 mm | - | 28 W/m² | - |
| 1777935467 | 20° C | 48% | 1006.8 hPa | 0 mm | - | 36 W/m² | - |
| 1777935163 | 20.56° C | 47% | 1006.7 hPa | 0 mm | - | 54 W/m² | - |
| 1777934860 | 20.56° C | 46% | 1006.8 hPa | 0 mm | - | 31 W/m² | - |
| 1777934557 | 20.56° C | 46% | 1006.9 hPa | 0 mm | - | 55 W/m² | - |
| 1777934253 | 21.11° C | 45% | 1006.9 hPa | 0 mm | - | 53 W/m² | - |
| 1777933949 | 21.11° C | 44% | 1006.8 hPa | 0 mm | - | 66 W/m² | - |
| 1777933647 | 21.11° C | 46% | 1006.7 hPa | 0 mm | - | 121 W/m² | - |
| 1777933343 | 21.11° C | 44% | 1006.6 hPa | 0 mm | - | 136 W/m² | - |
| 1777933041 | 21.11° C | 44% | 1006.7 hPa | 0 mm | - | 108 W/m² | - |
| 1777932738 | 21.11° C | 44% | 1006.7 hPa | 0 mm | - | 102 W/m² | - |
| 1777932434 | 21.67° C | 43% | 1006.7 hPa | 0 mm | - | 157 W/m² | - |
| 1777932132 | 22.22° C | 40% | 1006.9 hPa | 0 mm | - | 143 W/m² | - |
| 1777931828 | 21.67° C | 42% | 1006.7 hPa | 0 mm | - | 225 W/m² | - |
| 1777931526 | 21.67° C | 41% | 1006.9 hPa | 0 mm | - | 302 W/m² | - |
| 1777931221 | 21.67° C | 42% | 1006.7 hPa | 0 mm | - | 321 W/m² | - |
| 1777930918 | 22.22° C | 40% | 1007 hPa | 0 mm | - | 324 W/m² | - |
| 1777930614 | 22.22° C | 41% | 1006.6 hPa | 0 mm | - | 344 W/m² | - |
| 1777930311 | 22.22° C | 42% | 1006.7 hPa | 0 mm | - | 368 W/m² | - |
| 1777930008 | 21.67° C | 41% | 1006.8 hPa | 0 mm | - | 373 W/m² | - |
| 1777929704 | 22.22° C | 42% | 1006.8 hPa | 0 mm | - | 397 W/m² | - |
| 1777929402 | 21.67° C | 41% | 1006.8 hPa | 0 mm | - | 421 W/m² | - |
| 1777929098 | 21.67° C | 41% | 1006.5 hPa | 0 mm | - | 412 W/m² | - |
| 1777928796 | 22.22° C | 42% | 1006.9 hPa | 0 mm | - | 441 W/m² | - |
* Rain latest hour (hover to see other rain measurements)
** Current wind speed in m/s (hover to see current wind gust speed)